Flag for Mexico Weather past 2 weeks in Matamoros, Tamaulipas, Mexico

Now
79 °F

Passing clouds.


Feels Like: 82 °F
Forecast: 77 / 96 °F
Wind: No wind

Location: Brownsville / South Padre Island International Airport

Current Time: Jul 30, 2014 at 4:12:58 AM

Latest Report: Jul 30, 2014 at 3:04 AM


Visibility: 10 mi

Pressure: 30.04 "Hg

Humidity: 89%

Dew point: 75 °F

Location of MatamorosLocation

Historic Weather in Matamoros — Graph

°F

Matamoros temperature yesterday

Maximum temperature yesterday: 96 °F (at 2:53 PM)
Minimum temperature yesterday: 75 °F (at 5:53 AM)
Average temperature yesterday: 85 °F

Past Weeks' High & Low Weather Summary

 TemperatureHumidityPressure
High96 °F (Jul 19, 3:53 PM)100% (Jul 19, 8:04 AM)30.09 "Hg (Jul 19, 8:04 AM)
Low75 °F (Jul 16, 6:53 AM)44% (Jul 24, 12:53 PM)29.78 "Hg (Jul 17, 7:53 PM)
Average85 °F75%29.96 "Hg
* Reported Jul 15 3:53 AM — Jul 30 3:04 AM, Matamoros, Weather by CustomWeather, © 2014

Note: Actual official high and low records may vary slightly from our data, if they occured in-between our weather recording intervals... More about our weather records

Advertising

Matamoros weather history for previous 24 hours

 ConditionsComfort  
Time TempWeatherWind HumidityBarometerVisibility
3:04 AM
Jul 30
79 °FPassing clouds.No wind89%30.04 "Hg10 mi
2:53 AM77 °FPassing clouds.No wind94%30.03 "Hg10 mi
1:53 AM77 °FClear.6 mph94%30.03 "Hg10 mi
12:53 AM78 °FPassing clouds.5 mph90%30.04 "Hg10 mi
11:53 PM
Jul 29
79 °FClear.5 mph88%30.04 "Hg10 mi
10:53 PM80 °FClear.7 mph85%30.03 "Hg10 mi
9:53 PM81 °FClear.7 mph85%30.01 "Hg10 mi
8:53 PM82 °FSunny.8 mph79%30.00 "Hg10 mi
7:53 PM85 °FSunny.15 mph72%29.99 "Hg10 mi
6:53 PM89 °FSunny.17 mph59%29.98 "Hg10 mi
5:53 PM92 °FSunny.15 mph52%29.99 "Hg10 mi
4:53 PM94 °FSunny.12 mph51%29.99 "Hg10 mi
3:53 PM95 °FSunny.12 mph46%30.00 "Hg10 mi
2:53 PM96 °FPassing clouds.13 mph47%30.01 "Hg10 mi
1:53 PM95 °FPassing clouds.12 mph47%30.03 "Hg10 mi
12:53 PM94 °FPassing clouds.12 mph51%30.05 "Hg10 mi
11:53 AM92 °FScattered clouds.13 mph54%30.06 "Hg10 mi
10:53 AM89 °FSunny.9 mph59%30.08 "Hg10 mi
9:53 AM88 °FScattered clouds.9 mph65%30.08 "Hg10 mi
8:53 AM83 °FSunny.6 mph85%30.08 "Hg10 mi
7:53 AM79 °FWarm.N/A94%30.06 "Hg10 mi
6:53 AM76 °FClear.3 mph97%30.04 "Hg10 mi
5:53 AM75 °FClear.5 mph96%30.02 "Hg10 mi
4:53 AM76 °FClear.6 mph94%30.02 "Hg10 mi
Weather by CustomWeather, © 2014

See weather overviewHow to use our weather pages